FENGYUN 1C DEB

Satellite information

Favourite Embed

Satellite Type and Status

DEBRISIN ORBIT

Key statistics

Satellite FENGYUN 1C DEB at a glance.

Uptime

9668

Days in orbit

Revolutions

≈ 14.1

Per day

Orbit

SSO

Sun Synchronous Orbit

Inclination

98.7

Latest

Satellite identification and parameters

Extended collection of information and parameters for FENGYUN 1C DEB.

Object identification

Identified? True

Debris? True

Object name: FENGYUN 1C DEB

International designator: 1999-025EBB

Object number (NORAD): 36729

Object ID (CCSDS): 36729

Country: PEOPLES REPUBLIC OF CHINA (PRC)

Current information (Y/N): Y

RCS size: SMALL

Orbital parameters

Period: 102.11 minutes

Inclination: 98.7035 deg

SMA: 7236.695 km

Apoapsis: 892.808 km

Periapsis: 824.312 km

RAAN: 279.5961 deg

Eccentricy: 0.0047325

Argument of periapsis: 40.3323 deg

Mean anomaly: 320.1343 deg

Mean motion: 14.10237792 rev/day

Mean motion (dot): 0.0000077 rev/day2

B* drag term: 0.00045403877 1/REarth

Two-line elements (TLE)

Creation date: Oct. 23, 2025, 6:40 p.m.

Reference frame: TEME

Reference center: EARTH

Epoch: Oct. 23, 2025, 4:18 a.m. UTC

TLE line 0: 0 FENGYUN 1C DEB

TLE line 1: 1 36729U 99025EBB 25296.17944562 .00000770 00000-0 45404-3 0 9998

TLE line 2: 2 36729 98.7035 279.5961 0047325 40.3323 320.1343 14.10237792865399

Live tracking on map

Real-time ground track for satellite FENGYUN 1C DEB.

In-orbit conjunctions

A list of the most updated potential collisions computed for object FENGYUN 1C DEB.

Target Orbit TCA Probability of collision Miss distance Type
CZ-6A DEB LEO 2025-05-28 05:36:47 0.0001222637 62.0 (m) DEBRIS
METEOR 1-12 LEO 2024-05-31 00:38:52 0.0001628768 301.0 (m) PAYLOAD

Associated space launch

Chinese polar orbiting meteorological satellite

FENGYUN 1C DEB was lifted into orbit during the mission ‘Long March 4B | Feng Yun 1C’, on board a Long March 4B space rocket.

The launch took place on May 10, 1999, 1:33 a.m. from Launch Complex 7.

For more information about the launch, click the button.

Launch to space Long March 4B | Feng Yun 1C
Long March 4B | Feng Yun 1C

Agency: N/A

Status: Launch Successful

Launch date: May 10, 1999, 1:33 a.m. UTC

Rocket: Long March 4B

Launch pad: Launch Complex 7

Location: Taiyuan Satellite Launch Center, People's Republic of China

...

Latest news about this satellite

There are no fresh news available about this satellite. Check back as we update our databases every day.


Newsletter sign-up

Weekly statistics, charts and insights to help you stay on top of the space industry.